Hourly Weather Newport

Today, 7 July, Tuesday

Time Temperature Precipitation Wind Pressure Humidity
00:00 +11°C° 0 mm 3 mps 766 mmHg 94%
01:00 +11°C° 0 mm 3 mps 766 mmHg 94%
02:00 +11°C° 0 mm 3 mps 765 mmHg 95%
03:00 +11°C° 0 mm 3 mps 765 mmHg 95%
04:00 +11°C° 0 mm 3 mps 765 mmHg 94%
05:00 +12°C° 0 mm 3 mps 764 mmHg 93%
06:00 +13°C° 0 mm 3 mps 764 mmHg 94%
07:00 +13°C° 0.1 mm 4 mps 764 mmHg 92%
08:00 +14°C° 0.1 mm 5 mps 764 mmHg 90%
09:00 +14°C° 0.1 mm 5 mps 764 mmHg 89%
10:00 +15°C° 0 mm 6 mps 764 mmHg 86%
11:00 +15°C° 0 mm 6 mps 763 mmHg 83%
12:00 +15°C° 0 mm 7 mps 763 mmHg 80%
13:00 +15°C° 0 mm 8 mps 763 mmHg 82%
14:00 +15°C° 0 mm 8 mps 762 mmHg 84%
15:00 +13°C° 0 mm 9 mps 762 mmHg 87%
16:00 +13°C° 0.5 mm 9 mps 761 mmHg 90%
17:00 +13°C° 0.5 mm 9 mps 761 mmHg 94%
18:00 +13°C° 0.5 mm 9 mps 760 mmHg 97%
19:00 +13°C° 0.2 mm 9 mps 760 mmHg 98%
20:00 +15°C° 0.2 mm 8 mps 760 mmHg 98%
21:00 +15°C° 0.2 mm 8 mps 760 mmHg 98%
22:00 +15°C° 0.3 mm 8 mps 760 mmHg 98%
23:00 +15°C° 0.3 mm 8 mps 760 mmHg 98%

Tomorrow, 8 July, Wednesday

Time Temperature Precipitation Wind Pressure Humidity
00:00 +15°C° 0.3 mm 8 mps 759 mmHg 98%
01:00 +15°C° 0.3 mm 7 mps 759 mmHg 98%
02:00 +15°C° 0.3 mm 7 mps 759 mmHg 98%
03:00 +15°C° 0.3 mm 7 mps 759 mmHg 98%
04:00 +15°C° 0.8 mm 5 mps 759 mmHg 98%
05:00 +15°C° 0.8 mm 4 mps 759 mmHg 98%
06:00 +16°C° 0.8 mm 3 mps 759 mmHg 98%
07:00 +16°C° 0.5 mm 3 mps 759 mmHg 98%
08:00 +16°C° 0.5 mm 2 mps 759 mmHg 97%
09:00 +16°C° 0.5 mm 2 mps 760 mmHg 97%
10:00 +16°C° 0 mm 2 mps 760 mmHg 94%
11:00 +17°C° 0 mm 2 mps 760 mmHg 92%
12:00 +18°C° 0 mm 3 mps 760 mmHg 89%
13:00 +17°C° 0 mm 3 mps 760 mmHg 91%
14:00 +17°C° 0 mm 4 mps 760 mmHg 94%
15:00 +17°C° 0 mm 4 mps 760 mmHg 96%
16:00 +16°C° 0.2 mm 5 mps 760 mmHg 97%
17:00 +16°C° 0.2 mm 5 mps 759 mmHg 97%
18:00 +16°C° 0.2 mm 5 mps 759 mmHg 98%
19:00 +15°C° 0.8 mm 6 mps 759 mmHg 98%
20:00 +15°C° 0.8 mm 6 mps 759 mmHg 98%
21:00 +15°C° 0.8 mm 6 mps 759 mmHg 98%
22:00 +15°C° 0.5 mm 6 mps 759 mmHg 98%
23:00 +15°C° 0.5 mm 6 mps 759 mmHg 98%

Day after tomorrow, 9 July, Thursday

Time Temperature Precipitation Wind Pressure Humidity
00:00 +15°C° 0.5 mm 6 mps 758 mmHg 98%
01:00 +15°C° 1 mm 6 mps 758 mmHg 98%
02:00 +15°C° 1 mm 6 mps 758 mmHg 98%
03:00 +15°C° 1 mm 6 mps 758 mmHg 99%
04:00 +15°C° 0.5 mm 6 mps 757 mmHg 99%
05:00 +15°C° 0.5 mm 6 mps 757 mmHg 98%
06:00 +16°C° 0.5 mm 6 mps 757 mmHg 98%
07:00 +16°C° 0.2 mm 6 mps 757 mmHg 98%
08:00 +16°C° 0.2 mm 6 mps 757 mmHg 98%
09:00 +16°C° 0.2 mm 6 mps 757 mmHg 98%
10:00 +16°C° 0.2 mm 6 mps 757 mmHg 98%
11:00 +16°C° 0.2 mm 6 mps 757 mmHg 98%
12:00 +16°C° 0.2 mm 7 mps 757 mmHg 98%
13:00 +16°C° 0.2 mm 6 mps 757 mmHg 98%
14:00 +16°C° 0.2 mm 6 mps 757 mmHg 98%
15:00 +16°C° 0.2 mm 6 mps 757 mmHg 98%
16:00 +16°C° 0.1 mm 5 mps 757 mmHg 97%
17:00 +16°C° 0.1 mm 5 mps 757 mmHg 96%
18:00 +16°C° 0.1 mm 5 mps 757 mmHg 95%
19:00 +15°C° 0 mm 4 mps 757 mmHg 95%
20:00 +14°C° 0 mm 4 mps 758 mmHg 94%
21:00 +14°C° 0 mm 4 mps 758 mmHg 94%
22:00 +13°C° 0 mm 5 mps 758 mmHg 94%
23:00 +13°C° 0 mm 5 mps 759 mmHg 93%

10 July, Friday

Time Temperature Precipitation Wind Pressure Humidity
00:00 +11°C° 0 mm 6 mps 759 mmHg 93%
01:00 +10°C° 0 mm 6 mps 760 mmHg 92%
02:00 +9°C° 0 mm 6 mps 760 mmHg 90%
03:00 +9°C° 0 mm 6 mps 760 mmHg 89%
04:00 +9°C° 0 mm 6 mps 761 mmHg 89%
05:00 +9°C° 0 mm 6 mps 761 mmHg 89%
06:00 +9°C° 0 mm 6 mps 762 mmHg 89%
07:00 +10°C° 0 mm 7 mps 762 mmHg 84%
08:00 +11°C° 0 mm 7 mps 762 mmHg 79%
09:00 +13°C° 0 mm 8 mps 763 mmHg 74%
10:00 +13°C° 0 mm 8 mps 763 mmHg 73%
11:00 +13°C° 0 mm 8 mps 764 mmHg 72%
12:00 +15°C° 0 mm 8 mps 764 mmHg 72%
13:00 +15°C° 0 mm 7 mps 764 mmHg 71%
14:00 +15°C° 0 mm 7 mps 764 mmHg 70%
15:00 +16°C° 0 mm 7 mps 764 mmHg 69%
16:00 +15°C° 0 mm 6 mps 765 mmHg 71%
17:00 +15°C° 0 mm 6 mps 765 mmHg 73%
18:00 +14°C° 0 mm 5 mps 765 mmHg 74%
19:00 +13°C° 0 mm 4 mps 766 mmHg 79%
20:00 +11°C° 0 mm 4 mps 766 mmHg 85%
21:00 +10°C° 0 mm 3 mps 767 mmHg 90%
22:00 +9°C° 0 mm 2 mps 767 mmHg 90%
23:00 +9°C° 0 mm 2 mps 767 mmHg 90%

11 July, Saturday

Time Temperature Precipitation Wind Pressure Humidity
00:00 +9°C° 0 mm 1 mps 767 mmHg 90%
01:00 +9°C° 0 mm 1 mps 767 mmHg 90%
02:00 +9°C° 0 mm 1 mps 768 mmHg 90%
03:00 +9°C° 0 mm 1 mps 768 mmHg 90%
04:00 +10°C° 0 mm 1 mps 768 mmHg 89%
05:00 +11°C° 0 mm 1 mps 768 mmHg 88%
06:00 +12°C° 0 mm 1 mps 768 mmHg 87%
07:00 +14°C° 0 mm 1 mps 768 mmHg 83%
08:00 +15°C° 0 mm 1 mps 769 mmHg 79%
09:00 +18°C° 0 mm 1 mps 769 mmHg 74%
10:00 +17°C° 0 mm 2 mps 769 mmHg 73%
11:00 +17°C° 0 mm 2 mps 769 mmHg 72%
12:00 +18°C° 0 mm 3 mps 769 mmHg 70%
13:00 +18°C° 0 mm 3 mps 769 mmHg 70%
14:00 +18°C° 0 mm 3 mps 769 mmHg 70%
15:00 +18°C° 0 mm 3 mps 769 mmHg 69%
16:00 +18°C° 0 mm 3 mps 769 mmHg 71%
17:00 +17°C° 0 mm 3 mps 769 mmHg 73%
18:00 +17°C° 0 mm 3 mps 769 mmHg 74%
19:00 +14°C° 0 mm 3 mps 769 mmHg 77%
20:00 +13°C° 0 mm 2 mps 769 mmHg 80%
21:00 +10°C° 0 mm 2 mps 770 mmHg 83%
22:00 +10°C° 0 mm 2 mps 770 mmHg 81%
23:00 +9°C° 0 mm 2 mps 770 mmHg 80%

12 July, Sunday

Time Temperature Precipitation Wind Pressure Humidity
00:00 +9°C° 0 mm 2 mps 770 mmHg 78%
01:00 +9°C° 0 mm 2 mps 770 mmHg 79%
02:00 +9°C° 0 mm 2 mps 769 mmHg 80%
03:00 +9°C° 0 mm 1 mps 769 mmHg 81%
04:00 +10°C° 0 mm 1 mps 769 mmHg 81%
05:00 +11°C° 0 mm 1 mps 770 mmHg 80%
06:00 +12°C° 0 mm 1 mps 770 mmHg 80%
07:00 +14°C° 0 mm 1 mps 770 mmHg 75%
08:00 +16°C° 0 mm 1 mps 770 mmHg 71%
09:00 +18°C° 0 mm 1 mps 770 mmHg 67%
10:00 +19°C° 0 mm 1 mps 770 mmHg 65%
11:00 +20°C° 0 mm 1 mps 770 mmHg 63%
12:00 +20°C° 0 mm 1 mps 770 mmHg 62%
13:00 +21°C° 0 mm 1 mps 770 mmHg 62%
14:00 +21°C° 0 mm 1 mps 769 mmHg 62%
15:00 +21°C° 0 mm 1 mps 769 mmHg 62%
16:00 +21°C° 0 mm 1 mps 769 mmHg 66%
17:00 +19°C° 0 mm 2 mps 769 mmHg 69%
18:00 +19°C° 0 mm 2 mps 769 mmHg 73%
19:00 +17°C° 0 mm 2 mps 769 mmHg 78%
20:00 +16°C° 0 mm 1 mps 769 mmHg 82%
21:00 +14°C° 0 mm 1 mps 769 mmHg 87%
22:00 +14°C° 0 mm 1 mps 769 mmHg 87%
23:00 +13°C° 0 mm 1 mps 769 mmHg 88%
Show more